Starlink 31872

operational
NORAD ID: 59922 Int'l Des: 2024-106 Owner: SPXS Country: US Constellation: starlink
LEOCIRCULAR

Starlink 31872について

説明を読み込み中...

リアルタイム位置

3D地球を読み込み中...

次回通過

高度履歴

Altitude vs Time

uPlot chart will show altitude changes over time

軌道要素

1 59922U 24106A 25351.26848009 -.00001232 00000-0 -35225-4 0 9994
2 59922 43.0021 78.3306 0002338 279.9891 80.0697 15.27574401 87952
Epoch: Dec 17, 2025 • Age: 13 hours

現在のステータス

高度 485.3 km
速度 7.63 km/s
衛星直下点 33.68°N, 105.43°E
打ち上げ日 Jun 1, 2024
運用期間 1.5 years
タイプ internet

技術仕様

分類 Payload
質量 730.00 kg
乾燥質量 700.00 kg
総質量 730.00 kg
長さ 0.30 m
直径 4.10 m
スパン 29.00 m
形状 Box + pan
製造者 SPXS
バスタイプ Starlink V2M
フェーズステータス In Orbit
所有者/国 SPXS/US

大規模コンステレーション

Loading constellations...